TimeEDT,TemperatureF,Dew PointF,Humidity,Sea Level PressureIn,VisibilityMPH,Wind Direction,Wind SpeedMPH,Gust SpeedMPH,PrecipitationIn,Events,Conditions,WindDirDegrees,DateUTC
12:53 AM,41.0,15.1,35,30.16,10.0,WNW,6.9,-,N/A,,Clear,290,2013-03-15 04:53:00
1:53 AM,41.0,15.1,35,30.15,10.0,West,4.6,-,N/A,,Clear,270,2013-03-15 05:53:00
2:53 AM,36.0,18.0,48,30.14,10.0,SW,4.6,-,N/A,,Clear,230,2013-03-15 06:53:00
3:53 AM,35.1,17.1,48,30.13,10.0,WSW,4.6,-,N/A,,Clear,240,2013-03-15 07:53:00
4:53 AM,30.9,17.1,57,30.13,10.0,SSW,4.6,-,N/A,,Clear,210,2013-03-15 08:53:00
5:53 AM,30.0,17.1,59,30.13,10.0,West,4.6,-,N/A,,Clear,260,2013-03-15 09:53:00
6:53 AM,30.0,18.0,61,30.14,10.0,West,3.5,-,N/A,,Clear,270,2013-03-15 10:53:00
7:53 AM,28.0,19.9,72,30.14,10.0,Calm,Calm,-,N/A,,Clear,0,2013-03-15 11:53:00
8:53 AM,35.1,23.0,61,30.15,10.0,SSW,4.6,-,N/A,,Clear,200,2013-03-15 12:53:00
9:53 AM,45.0,19.9,37,30.13,10.0,West,10.4,-,N/A,,Clear,280,2013-03-15 13:53:00
10:53 AM,48.9,21.0,33,30.11,10.0,SW,13.8,18.4,N/A,,Clear,230,2013-03-15 14:53:00
11:53 AM,54.0,25.0,33,30.07,10.0,WSW,18.4,23.0,N/A,,Clear,240,2013-03-15 15:53:00
12:53 PM,55.9,27.0,33,30.04,10.0,West,17.3,21.9,N/A,,Scattered Clouds,260,2013-03-15 16:53:00
1:53 PM,59.0,28.9,32,30.00,10.0,SW,15.0,21.9,N/A,,Clear,230,2013-03-15 17:53:00
2:53 PM,61.0,30.0,31,29.94,10.0,WSW,11.5,23.0,N/A,,Clear,250,2013-03-15 18:53:00
3:53 PM,62.1,30.0,30,29.91,10.0,SW,12.7,24.2,N/A,,Clear,230,2013-03-15 19:53:00
4:53 PM,63.0,30.9,30,29.88,10.0,SW,16.1,28.8,N/A,,Clear,220,2013-03-15 20:53:00
5:53 PM,63.0,30.9,30,29.87,10.0,SW,13.8,25.3,N/A,,Clear,230,2013-03-15 21:53:00
6:53 PM,62.1,30.9,31,29.87,10.0,SW,11.5,-,N/A,,Clear,230,2013-03-15 22:53:00
7:53 PM,57.9,30.9,36,29.88,10.0,SW,10.4,-,N/A,,Clear,230,2013-03-15 23:53:00
8:53 PM,54.0,32.0,43,29.88,10.0,SSW,5.8,-,N/A,,Clear,210,2013-03-16 00:53:00
9:53 PM,48.9,32.0,52,29.88,10.0,SW,6.9,-,N/A,,Clear,230,2013-03-16 01:53:00
10:53 PM,48.0,32.0,54,29.87,10.0,WSW,3.5,-,N/A,,Clear,240,2013-03-16 02:53:00
11:53 PM,44.1,32.0,63,29.87,10.0,Calm,Calm,-,N/A,,Clear,0,2013-03-16 03:53:00